This demonstration page uses our WeatherBlox Daily Observations layout. Learn more.

Left ArrowRight Arrow

Hourly Observations for July 29, 2017

Temp ( °F °C ) Dew Point ( °F °C ) Humidity (%) Winds ( mph kmh ) Pressure ( in mb ) Visibility ( mi km ) Precip ( " mm )
12:15 am 00:15 Cloudy with Rain 70 20.9 65 18.5 86 86 NE 9 15 29.97 1015 10 16 0.00 0.00
12:35 am 00:35 Cloudy with Heavy Rain 69 20.5 65 18.6 89 89 N 13 20 30.03 1017 5 8 0.07 1.78
12:55 am 00:55 Cloudy with Heavy Rain 68 19.8 65 18.2 91 91 ENE 14 22 30.03 1017 3 5 0.28 7.11
1:15 am 01:15 Cloudy with Light Rain 67 19.7 65 18.5 93 93 E 5 7 30.03 1017 7 11 0.09 2.29
1:35 am 01:35 Cloudy with Rain 67 19.7 65 18.5 93 93 ESE 8 13 30.03 1017 7 11 0.10 2.54
1:55 am 01:55 Cloudy with Rain 68 19.8 65 18.5 92 92 SE 14 22 30.00 1016 5 8 0.16 4.06
2:15 am 02:15 Cloudy with Light Rain 68 19.8 65 18.4 92 92 SE 13 20 30.00 1016 10 16 0.00 0.00
2:35 am 02:35 Cloudy with Rain 67 19.7 65 18.4 92 92 SE 12 19 30.00 1016 10 16 0.00 0.00
2:55 am 02:55 Mostly Cloudy 67 19.5 65 18.2 92 92 SE 10 17 30.00 1016 10 16 0.00 0.00
3:15 am 03:15 Clear 67 19.5 65 18.2 92 92 SSE 9 15 30.00 1016 10 16 0.00 0.00
3:35 am 03:35 Clear 67 19.3 65 18.2 93 93 SSE 9 15 30.00 1016 10 16 0.00 0.00
3:55 am 03:55 Partly Cloudy 67 19.3 65 18.2 93 93 SSE 8 13 30.00 1016 10 16 0.00 0.00
4:15 am 04:15 Partly Cloudy 67 19.5 65 18.2 92 92 SE 6 9 30.00 1016 10 16 0.00 0.00
4:35 am 04:35 Partly Cloudy 67 19.5 65 18.3 93 93 ESE 6 9 30.00 1016 10 16 0.00 0.00
4:55 am 04:55 Partly Cloudy 67 19.5 65 18.3 93 93 SE 5 7 30.00 1016 10 16 0.00 0.00
5:15 am 05:15 Mostly Cloudy 67 19.3 65 18.3 94 94 E 5 7 30.00 1016 7 11 0.00 0.00
5:35 am 05:35 Cloudy 67 19.5 65 18.5 94 94 SE 5 7 30.00 1016 7 11 0.00 0.00
5:55 am 05:55 Mostly Cloudy 67 19.5 65 18.5 94 94 SE 6 9 30.00 1016 7 11 0.00 0.00
6:15 am 06:15 Mostly Cloudy 67 19.6 65 18.6 94 94 ESE 5 7 30.00 1016 7 11 0.00 0.00
6:35 am 06:35 Cloudy 67 19.6 65 18.6 94 94 ESE 3 6 30.00 1016 7 11 0.00 0.00
6:55 am 06:55 Cloudy with Mist and Fog 67 19.6 65 18.6 94 94 E 7 11 30.00 1016 4 6 0.00 0.00
7:15 am 07:15 Cloudy with Mist and Fog 67 19.7 66 18.7 94 94 ESE 6 9 30.00 1016 5 8 0.00 0.00
7:35 am 07:35 Cloudy 68 19.8 66 18.8 94 94 E 7 11 30.00 1016 7 11 0.00 0.00
7:55 am 07:55 Cloudy 68 19.8 66 18.8 94 94 ESE 6 9 30.03 1017 7 11 0.00 0.00
8:15 am 08:15 Cloudy 68 20 66 18.8 93 93 ESE 6 9 30.03 1017 7 11 0.00 0.00
8:35 am 08:35 Cloudy 69 20.4 66 19.1 92 92 ESE 8 13 30.03 1017 10 16 0.00 0.00
8:55 am 08:55 Mostly Cloudy 69 20.8 66 19.1 90 90 SE 6 9 30.00 1016 10 16 0.00 0.00
9:15 am 09:15 Cloudy 71 21.4 67 19.2 87 87 SSE 7 11 30.00 1016 10 16 0.00 0.00
9:35 am 09:35 Cloudy 71 21.6 66 19 85 85 SSE 9 15 30.00 1016 10 16 0.00 0.00
9:55 am 09:55 Cloudy 72 22.3 67 19.4 84 84 SE 7 11 30.00 1016 10 16 0.01 0.25
10:15 am 10:15 Cloudy 73 22.7 67 19.3 81 81 SSE 8 13 30.00 1016 10 16 0.00 0.00
10:35 am 10:35 Cloudy 73 23 67 19.4 80 80 SSE 9 15 30.00 1016 10 16 0.00 0.00
10:55 am 10:55 Cloudy 73 23 67 19.3 80 80 SSE 12 19 30.00 1016 10 16 0.00 0.00
11:15 am 11:15 Cloudy 74 23.6 67 19.7 79 79 SSE 8 13 30.00 1016 10 16 0.00 0.00
11:35 am 11:35 Cloudy 75 24.1 68 19.9 77 77 SSE 10 17 30.00 1016 10 16 0.00 0.00
11:55 am 11:55 Cloudy 76 24.5 68 19.9 76 76 SSE 12 19 29.97 1015 10 16 0.00 0.00
12:15 pm 12:15 Cloudy 76 24.7 68 19.9 75 75 SSE 12 19 29.97 1015 10 16 0.00 0.00
12:35 pm 12:35 Cloudy 77 25.1 68 19.9 73 73 SE 10 17 29.97 1015 10 16 0.00 0.00
12:55 pm 12:55 Cloudy 79 25.9 68 20 70 70 SE 10 17 29.97 1015 10 16 0.00 0.00
1:15 pm 13:15 Cloudy 79 26 68 20 70 70 SE 10 17 29.97 1015 10 16 0.00 0.00
1:35 pm 13:35 Cloudy 79 26.1 68 19.8 68 68 SE 14 22 29.97 1015 10 16 0.00 0.00
1:55 pm 13:55 Cloudy 80 26.5 68 19.9 67 67 SE 16 26 29.97 1015 10 16 0.00 0.00
2:15 pm 14:15 Cloudy 80 26.9 68 19.9 66 66 SE 15 24 29.97 1015 10 16 0.00 0.00
2:35 pm 14:35 Cloudy 80 26.5 68 20 68 68 SE 14 22 29.97 1015 10 16 0.00 0.00
2:55 pm 14:55 Cloudy 80 26.5 68 19.8 67 67 SE 14 22 29.97 1015 10 16 0.00 0.00
3:15 pm 15:15 Mostly Cloudy 81 27 67 19.5 64 64 SE 13 20 29.97 1015 10 16 0.00 0.00
3:35 pm 15:35 Mostly Cloudy 82 27.6 67 19.7 62 62 SSE 16 26 29.97 1015 10 16 0.00 0.00
3:55 pm 15:55 Mostly Cloudy 82 27.8 68 19.9 62 62 SSE 14 22 29.97 1015 10 16 0.00 0.00
4:15 pm 16:15 Mostly Cloudy 82 27.7 68 20 63 63 SE 14 22 29.97 1015 10 16 0.00 0.00
4:35 pm 16:35 Partly Cloudy 82 27.8 67 19.6 61 61 SE 13 20 29.97 1015 10 16 0.00 0.00
4:55 pm 16:55 Partly Cloudy 82 27.5 67 19.7 63 63 SE 13 20 29.94 1014 10 16 0.00 0.00
5:15 pm 17:15 Sunny 81 27.3 67 19.2 61 61 ESE 16 26 29.94 1014 10 16 0.00 0.00
5:35 pm 17:35 Partly Cloudy 82 27.5 66 19.1 60 60 SE 15 24 29.94 1014 10 16 0.00 0.00
5:55 pm 17:55 Partly Cloudy 82 27.5 66 18.8 59 59 SE 15 24 29.94 1014 10 16 0.00 0.00
6:15 pm 18:15 Sunny 81 27.3 66 18.7 59 59 ESE 17 28 29.94 1014 10 16 0.00 0.00
6:35 pm 18:35 Sunny 81 27 65 18.5 60 60 SE 13 20 29.94 1014 10 16 0.00 0.00
6:55 pm 18:55 Sunny 80 26.7 66 18.8 62 62 ESE 16 26 29.91 1013 10 16 0.00 0.00
7:15 pm 19:15 Partly Cloudy 79 26.2 66 18.8 64 64 SE 13 20 29.91 1013 10 16 0.00 0.00
7:35 pm 19:35 Mostly Cloudy 78 25.5 66 18.9 67 67 ESE 10 17 29.94 1014 10 16 0.00 0.00
7:55 pm 19:55 Partly Cloudy 77 25.1 66 18.9 69 69 SE 13 20 29.94 1014 10 16 0.00 0.00
8:15 pm 20:15 Partly Cloudy 77 25 66 18.7 68 68 ESE 8 13 29.94 1014 10 16 0.00 0.00
8:35 pm 20:35 Mostly Cloudy 76 24.6 65 18.6 69 69 SE 10 17 29.94 1014 10 16 0.00 0.00
8:55 pm 20:55 Partly Cloudy 76 24.3 66 18.9 72 72 SE 9 15 29.94 1014 10 16 0.00 0.00
9:15 pm 21:15 Clear 75 23.8 67 19.2 76 76 ESE 8 13 30.00 1016 10 16 0.00 0.00
9:35 pm 21:35 Clear 75 23.7 66 19 75 75 SE 9 15 30.00 1016 10 16 0.00 0.00
9:55 pm 21:55 Clear 74 23.5 65 18.6 74 74 SE 10 17 30.00 1016 10 16 0.00 0.00
10:15 pm 22:15 Partly Cloudy 74 23.5 65 18.3 73 73 SE 12 19 30.00 1016 10 16 0.00 0.00
10:35 pm 22:35 Partly Cloudy 74 23.4 65 18.2 73 73 SE 12 19 30.00 1016 10 16 0.00 0.00
10:55 pm 22:55 Clear 73 22.9 65 18.2 75 75 SE 8 13 30.03 1017 10 16 0.00 0.00
11:15 pm 23:15 Partly Cloudy 73 22.7 64 18 75 75 SE 9 15 30.03 1017 10 16 0.00 0.00
11:35 pm 23:35 Mostly Cloudy 73 22.7 64 17.7 73 73 SE 9 15 30.03 1017 10 16 0.00 0.00
11:55 pm 23:55 Cloudy with Light Rain 72 22.3 64 18 77 77 SSE 5 7 30.03 1017 10 16 0.00 0.00

Powered by AerisWeather